Regional Weather Roundup
Issued by NWS

Home | Current Version | Previous Version | Graphics & Text | Print | Product List | Glossary On
Versions: 1 2 3 4 5 6 7 8 9 10 11 12 13 14 15 16 17 18 19 20 21 22 23 24 25 26 27 28 29 30 31 32 33 34 35 36 37 38 39 40 41 42 43 44 45 46 47 48 49 50
000
ASUS43 KLMK 222110
RWRKY
KENTUCKY REGIONAL WEATHER ROUNDUP
NATIONAL WEATHER SERVICE LOUISVILLE KY
500 PM EDT WED OCT 22 2014

NOTE "FAIR" INDICATES FEW OR NO CLOUDS BELOW 12,000 FEET
WITH NO SIGNIFICANT WEATHER AND/OR OBSTRUCTIONS TO VISIBILITY.

KYZ001>023-026-027-061>063-070>075-222200-
WESTERN AND SOUTH CENTRAL KENTUCKY

CITY           SKY/WX    TMP DP  RH WIND       PRES   REMARKS
PADUCAH        SUNNY     64  43  46 NE10      30.21F
HENDERSON      SUNNY    N/A N/A N/A E7        30.23F
OWENSBORO      SUNNY     61  41  47 NE7       30.24F
HOPKINSVILLE   SUNNY     62  41  46 NE7       30.20F
BOWLING GREEN  SUNNY     63  40  42 NE10      30.22F
GLASGOW        SUNNY     62  41  45 NE5       30.21F
$$

KYZ024-025-028>034-038-045-046-053-222200-
NORTH CENTRAL KENTUCKY

CITY           SKY/WX    TMP DP  RH WIND       PRES   REMARKS
LOUISVILLE/SDF MOSUNNY   62  41  46 VRB6      30.24F
LOUISVILLE/LOU SUNNY     61  41  47 N6        30.24F
FORT KNOX      MOSUNNY   59  42  53 N7        30.22F
$$

KYZ035>037-039>044-047>052-055>060-089>105-222200-
NORTHEAST KENTUCKY

CITY           SKY/WX    TMP DP  RH WIND       PRES   REMARKS
LEXINGTON      CLOUDY    56  42  59 NE8       30.25S
COVINGTON      CLOUDY    53  39  59 NE8       30.26F
FRANKFORT      MOSUNNY   57  39  51 N7        30.23F
$$

KYZ054-064>069-076>088-106>120-222200-
SOUTHEAST KENTUCKY

CITY           SKY/WX    TMP DP  RH WIND       PRES   REMARKS
JACKSON        CLOUDY    50  40  68 CALM      30.23S
LONDON         CLOUDY    50  40  68 N3        30.24F
SOMERSET       CLOUDY    50  39  66 NE7       30.26S
MIDDLESBORO    CLOUDY    50  40  68 N3        30.24S
MONTICELLO     CLEAR     56  42  59 NE8       30.25S
$$




USA.gov is the U.S. government's official web portal to all federal, state and local government web resources and services.